Hayward, WI

7:07 PM CDT on March 30, 2017 (GMT -0500)
Sawyer County

Weather History for KHYR - November, 2011

Change the Weather History Date:

Saturday, November 19, 2011

  Actual Average Record
Temperature  
Mean Temperature 28 °F -  
Max Temperature 32 °F 32 °F 54 °F (2012)
Min Temperature 23 °F 13 °F 5 °F (1966)
Degree Days  
Heating Degree Days 37    
Moisture  
Dew Point 25 °F    
Average Humidity 89    
Maximum Humidity 93    
Minimum Humidity 76    
Precipitation  
Precipitation 0.14 in - - ()
Sea Level Pressure  
Sea Level Pressure 29.86 in    
Wind  
Wind Speed 3 mph (NNE)    
Max Wind Speed 8 mph    
Max Gust Speed 16 mph    
Visibility 4 miles    
Events Fog , Snow    
Averages and records for this station are not official NWS values.
T = Trace of Precipitation, MM = Missing Value Source: NWS Daily Summary

Daily Weather History Graph

Daily Weather History Graph

Search for Another Location

Airport or City:

Trip Planner

Search our weather history database for the weather conditions in past years. The results will help you decide how hot, cold, wet, or windy it might be!

Date:

Astronomy

Nov. 19, 2011 Rise Set
Actual Time 7:11 AM CST 4:30 PM CST
Civil Twilight 6:38 AM CST 5:03 PM CST
Nautical Twilight 6:02 AM CST 5:39 PM CST
Astronomical Twilight 5:26 AM CST 6:15 PM CST
Moon 12:12 AM CST (11/19) 1:05 PM CST (11/19)
Length of Visible Light 10h 24m
Length of Day
9h 18m
Last Quarter, 38% of the Moon is Illuminated
Nov 19
Last Quarter
Nov 25
New
Dec 2
First Quarter
Dec 10
Full
Dec 17
Last Quarter

Hourly Weather History & Observations

Time (CST) Temp. Windchill Dew Point Humidity Pressure Visibility Wind Dir Wind Speed Gust Speed Precip Events Conditions
12:38 AM 28.4 °F - 26.6 °F 93% 29.72 in 10.0 mi Calm Calm - N/A   Mostly Cloudy
12:53 AM 28.9 °F - 26.1 °F 89% 29.77 in 10.0 mi Calm Calm - N/A   Overcast
1:53 AM 30.9 °F - 27.0 °F 85% 29.74 in 10.0 mi Calm Calm - N/A   Overcast
2:10 AM 28.4 °F - 26.6 °F 93% 29.70 in 10.0 mi Calm Calm - N/A   Scattered Clouds
2:53 AM 28.0 °F - 26.1 °F 92% 29.78 in 10.0 mi Calm Calm - N/A   Partly Cloudy
3:53 AM 28.9 °F - 26.1 °F 89% 29.78 in 10.0 mi Calm Calm - N/A   Mostly Cloudy
4:41 AM 28.4 °F - 26.6 °F 93% 29.75 in 10.0 mi Calm Calm - N/A   Mostly Cloudy
5:31 AM 32.0 °F 27.5 °F 28.4 °F 87% 29.79 in 9.0 mi Variable 4.6 mph - N/A   Overcast
5:53 AM 32.0 °F 26.4 °F 28.9 °F 88% 29.84 in 8.0 mi Variable 5.8 mph - N/A   Overcast
6:53 AM 30.9 °F 25.2 °F 28.9 °F 92% 29.81 in 6.0 mi NNE 5.8 mph - N/A   Overcast
7:53 AM 32.0 °F 27.5 °F 28.9 °F 88% 29.82 in 5.0 mi Variable 4.6 mph - N/A   Overcast
8:53 AM 32.0 °F - 28.0 °F 85% 29.86 in 6.0 mi Calm Calm - N/A   Overcast
9:09 AM 32.0 °F 28.7 °F 28.4 °F 87% 29.82 in 7.0 mi NNE 3.5 mph - N/A   Overcast
9:53 AM 32.0 °F 27.5 °F 26.1 °F 79% 29.86 in 8.0 mi Variable 4.6 mph - N/A   Overcast
10:53 AM 32.0 °F 28.7 °F 26.1 °F 79% 29.85 in 9.0 mi Variable 3.5 mph - N/A   Overcast
11:53 AM 30.9 °F 24.3 °F 24.1 °F 76% 29.83 in 10.0 mi Variable 6.9 mph - N/A   Overcast
12:53 PM 30.0 °F 24.1 °F 24.1 °F 79% 29.83 in 10.0 mi NNE 5.8 mph - N/A   Overcast
1:18 PM 28.4 °F 22.2 °F 24.8 °F 86% 29.78 in 1.8 mi Variable 5.8 mph 16.1 mph 0.00 in Snow Light Snow
1:26 PM 28.4 °F 22.2 °F 24.8 °F 86% 29.78 in 0.8 mi NNE 5.8 mph - 0.00 in Snow Light Snow
1:33 PM 28.4 °F 21.2 °F 24.8 °F 86% 29.78 in 0.5 mi Variable 6.9 mph - 0.01 in Fog , Snow Snow
1:53 PM 28.0 °F 22.8 °F 25.0 °F 88% 29.82 in 0.5 mi Variable 4.6 mph - 0.03 in Fog , Snow Snow
2:15 PM 28.4 °F 24.6 °F 26.6 °F 93% 29.76 in 0.5 mi Variable 3.5 mph - 0.01 in Fog , Snow Light Snow
2:22 PM 28.4 °F - 26.6 °F 93% 29.77 in 0.8 mi Calm Calm - 0.01 in Snow Light Snow
2:43 PM 28.4 °F - 26.6 °F 93% 29.79 in 0.5 mi Calm Calm - 0.03 in Fog , Snow Snow
3:26 PM 28.4 °F 23.3 °F 26.6 °F 93% 29.80 in 0.2 mi Variable 4.6 mph - 0.04 in Fog , Snow Snow
3:53 PM 28.0 °F 24.2 °F 26.1 °F 92% 29.85 in 0.5 mi Variable 3.5 mph - 0.06 in Fog , Snow Snow
4:13 PM 28.4 °F 24.6 °F 26.6 °F 93% 29.82 in 0.5 mi Variable 3.5 mph - 0.01 in Fog , Snow Snow
4:48 PM 28.4 °F 23.3 °F 26.6 °F 93% 29.84 in 1.0 mi Variable 4.6 mph - 0.03 in Snow Light Snow
4:53 PM 28.0 °F 24.2 °F 26.1 °F 92% 29.89 in 1.0 mi Variable 3.5 mph - 0.03 in Snow Light Snow
5:00 PM 28.4 °F 23.3 °F 26.6 °F 93% 29.84 in 0.8 mi Variable 4.6 mph - 0.01 in Snow Light Snow
5:10 PM 28.4 °F 21.2 °F 26.6 °F 93% 29.85 in 1.0 mi Variable 6.9 mph - 0.01 in Snow Light Snow
5:35 PM 28.4 °F 24.6 °F 26.6 °F 93% 29.86 in 0.8 mi Variable 3.5 mph - 0.03 in Snow Light Snow
5:42 PM 28.4 °F 23.3 °F 26.6 °F 93% 29.86 in 0.8 mi Variable 4.6 mph - 0.03 in Snow Light Snow
6:01 PM 28.4 °F 24.6 °F 26.6 °F 93% 29.86 in 0.8 mi Variable 3.5 mph - 0.00 in Snow Light Snow
6:23 PM 28.4 °F 23.3 °F 26.6 °F 93% 29.87 in 1.0 mi Variable 4.6 mph - 0.02 in Snow Light Snow
6:32 PM 28.4 °F 23.3 °F 26.6 °F 93% 29.87 in 1.2 mi Variable 4.6 mph - 0.02 in Snow Light Snow
6:47 PM 26.6 °F 22.6 °F 24.8 °F 93% 29.88 in 1.0 mi Variable 3.5 mph - 0.02 in Snow Light Snow
7:04 PM 26.6 °F 20.0 °F 24.8 °F 93% 29.88 in 1.2 mi North 5.8 mph - 0.00 in Snow Light Snow
7:13 PM 26.6 °F 20.0 °F 24.8 °F 93% 29.88 in 1.2 mi Variable 5.8 mph - 0.00 in Snow Light Snow
7:26 PM 26.6 °F 22.6 °F 24.8 °F 93% 29.89 in 1.8 mi Variable 3.5 mph - 0.00 in Snow Light Snow
7:53 PM 27.0 °F 20.5 °F 24.1 °F 89% 29.96 in 1.8 mi Variable 5.8 mph - 0.02 in Snow Light Snow
8:40 PM 26.6 °F 22.6 °F 23.0 °F 86% 29.94 in 2.5 mi Variable 3.5 mph - 0.00 in Snow Light Snow
8:53 PM 26.1 °F 21.9 °F 23.0 °F 88% 30.01 in 2.5 mi Variable 3.5 mph - 0.00 in Snow Light Snow
9:01 PM 26.6 °F 19.1 °F 23.0 °F 86% 29.96 in 3.0 mi Variable 6.9 mph - 0.00 in Snow Light Snow
9:12 PM 24.8 °F 20.5 °F 23.0 °F 93% 29.97 in 2.5 mi Variable 3.5 mph - 0.00 in Snow Light Snow
9:34 PM 24.8 °F - 21.2 °F 86% 29.98 in 3.0 mi Calm Calm - 0.00 in Snow Light Snow
9:42 PM 24.8 °F 20.5 °F 21.2 °F 86% 29.99 in 4.0 mi Variable 3.5 mph - 0.00 in Snow Light Snow
9:53 PM 25.0 °F 16.3 °F 21.9 °F 88% 30.05 in 9.0 mi North 8.1 mph - 0.00 in   Overcast
10:53 PM 24.1 °F 19.7 °F 21.0 °F 88% 30.09 in 10.0 mi Variable 3.5 mph - N/A   Overcast
11:53 PM 23.0 °F 15.8 °F 19.9 °F 88% 30.13 in 10.0 mi Variable 5.8 mph - N/A   Overcast